TimeCDT,TemperatureF,Dew PointF,Humidity,Sea Level PressureIn,VisibilityMPH,Wind Direction,Wind SpeedMPH,Gust SpeedMPH,PrecipitationIn,Events,Conditions,WindDirDegrees,DateUTC
12:53 AM,73.0,60.1,64,29.85,10.0,South,16.1,-,N/A,,Clear,190,2013-06-10 05:53:00
1:53 AM,71.1,60.1,68,29.85,10.0,SSW,15.0,-,N/A,,Clear,200,2013-06-10 06:53:00
2:53 AM,70.0,60.1,71,29.86,10.0,SSW,13.8,-,N/A,,Clear,210,2013-06-10 07:53:00
3:53 AM,70.0,60.1,71,29.85,10.0,SSW,15.0,-,N/A,,Clear,200,2013-06-10 08:53:00
4:53 AM,69.1,61.0,75,29.86,10.0,SSW,13.8,-,N/A,,Clear,210,2013-06-10 09:53:00
5:53 AM,70.0,61.0,73,29.86,10.0,SSW,15.0,-,N/A,,Clear,210,2013-06-10 10:53:00
6:53 AM,70.0,61.0,73,29.87,10.0,SSW,15.0,-,N/A,,Clear,210,2013-06-10 11:53:00
7:53 AM,73.0,61.0,66,29.87,10.0,SSW,17.3,-,N/A,,Clear,210,2013-06-10 12:53:00
8:53 AM,79.0,62.1,56,29.89,10.0,SW,24.2,-,N/A,,Clear,220,2013-06-10 13:53:00
9:53 AM,82.9,63.0,51,29.89,10.0,SW,26.5,31.1,N/A,,Clear,220,2013-06-10 14:53:00
10:53 AM,88.0,62.1,42,29.88,10.0,SW,27.6,33.4,N/A,,Clear,220,2013-06-10 15:53:00
11:53 AM,91.0,60.1,35,29.87,10.0,SW,24.2,32.2,N/A,,Clear,220,2013-06-10 16:53:00
12:53 PM,95.0,53.1,24,29.86,10.0,SW,24.2,34.5,N/A,,Clear,220,2013-06-10 17:53:00
1:53 PM,97.0,54.0,23,29.85,10.0,SW,21.9,33.4,N/A,,Clear,220,2013-06-10 18:53:00
2:53 PM,99.0,54.0,22,29.83,10.0,SW,17.3,27.6,N/A,,Clear,230,2013-06-10 19:53:00
3:53 PM,99.0,54.0,22,29.82,10.0,SSW,21.9,27.6,N/A,,Clear,200,2013-06-10 20:53:00
4:53 PM,100.0,51.1,19,29.80,10.0,SSW,17.3,25.3,N/A,,Clear,200,2013-06-10 21:53:00
5:53 PM,99.0,51.1,20,29.79,10.0,SW,21.9,27.6,N/A,,Clear,220,2013-06-10 22:53:00
6:53 PM,97.0,52.0,22,29.78,10.0,SSW,20.7,27.6,N/A,,Clear,200,2013-06-10 23:53:00
7:53 PM,93.9,46.9,20,29.79,10.0,South,19.6,-,N/A,,Clear,190,2013-06-11 00:53:00
8:53 PM,89.1,50.0,26,29.81,10.0,South,13.8,-,N/A,,Clear,190,2013-06-11 01:53:00
9:53 PM,86.0,53.1,32,29.81,10.0,South,15.0,-,N/A,,Clear,190,2013-06-11 02:53:00
10:53 PM,82.9,53.1,36,29.84,10.0,South,12.7,-,N/A,,Clear,190,2013-06-11 03:53:00
11:53 PM,81.0,53.1,38,29.85,10.0,South,13.8,-,N/A,,Clear,190,2013-06-11 04:53:00